UAL486 KCLE-KDEN

Flight info

Callsign UAL486
Flight time N/A
Altitude 34000
Route GTLKE5 YABRO IOW OBH BRWRY LAWGR4
Aircraft B739/M-SDE2E3FGHIRWXY/LB1

Departure

Time N/A
Airport Cleveland Hopkins International Airport (KCLE)

Arrival

Time 2026-05-04 22:14
Airport Denver International Airport (KDEN)
Time Latitude Longitude Altitude Speed Heading
2026-05-04 21:43 40.56082 -101.94501 33836 ft 360 kts 261°
2026-05-04 21:43 40.55500 -101.97699 33862 ft 361 kts 261°
2026-05-04 21:44 40.54305 -102.04136 33884 ft 363 kts 260°
2026-05-04 21:44 40.53124 -102.10584 33885 ft 362 kts 260°
2026-05-04 21:45 40.51915 -102.17029 33896 ft 364 kts 260°
2026-05-04 21:45 40.50697 -102.23428 33895 ft 363 kts 260°
2026-05-04 21:46 40.49513 -102.29839 33890 ft 361 kts 261°
2026-05-04 21:46 40.48327 -102.36222 33886 ft 356 kts 260°
2026-05-04 21:47 40.47156 -102.42406 33483 ft 341 kts 260°
2026-05-04 21:47 40.46585 -102.45413 33026 ft 336 kts 260°
2026-05-04 21:47 40.46027 -102.48383 32541 ft 335 kts 260°
2026-05-04 21:47 40.45476 -102.51352 32102 ft 333 kts 259°
2026-05-04 21:48 40.44917 -102.54290 31642 ft 331 kts 259°
2026-05-04 21:48 40.44355 -102.57212 31182 ft 328 kts 259°
2026-05-04 21:48 40.43802 -102.60110 30757 ft 327 kts 259°
2026-05-04 21:48 40.43251 -102.62996 30344 ft 326 kts 258°
2026-05-04 21:49 40.42699 -102.65892 29946 ft 329 kts 258°
2026-05-04 21:49 40.42133 -102.68852 29658 ft 341 kts 258°
2026-05-04 21:49 40.41541 -102.71933 29343 ft 354 kts 258°
2026-05-04 21:49 40.40932 -102.75088 29027 ft 359 kts 258°
2026-05-04 21:50 40.40340 -102.78249 28713 ft 355 kts 258°
2026-05-04 21:50 40.39776 -102.81353 28419 ft 345 kts 258°
2026-05-04 21:50 40.39142 -102.84440 28168 ft 356 kts 257°
2026-05-04 21:50 40.38493 -102.87641 27872 ft 370 kts 258°
2026-05-04 21:51 40.37849 -102.90960 27575 ft 381 kts 258°
2026-05-04 21:51 40.37191 -102.94378 27245 ft 389 kts 258°
2026-05-04 21:51 40.36535 -102.97758 26917 ft 387 kts 257°
2026-05-04 21:51 40.35869 -103.01167 26603 ft 384 kts 257°
2026-05-04 21:52 40.35210 -103.04543 26297 ft 381 kts 257°
2026-05-04 21:52 40.34556 -103.07907 25975 ft 380 kts 257°
2026-05-04 21:52 40.33905 -103.11255 25686 ft 379 kts 257°
2026-05-04 21:52 40.33253 -103.14601 25310 ft 378 kts 257°
2026-05-04 21:53 40.32604 -103.17929 25010 ft 376 kts 257°
2026-05-04 21:53 40.31956 -103.21243 24698 ft 373 kts 257°
2026-05-04 21:53 40.31315 -103.24518 24397 ft 371 kts 257°
2026-05-04 21:53 40.30671 -103.27793 24115 ft 373 kts 257°
2026-05-04 21:54 40.30018 -103.31087 23816 ft 373 kts 256°
2026-05-04 21:54 40.29362 -103.34382 23517 ft 373 kts 256°
2026-05-04 21:54 40.28716 -103.37619 23189 ft 372 kts 256°
2026-05-04 21:54 40.28061 -103.40897 22857 ft 371 kts 256°
2026-05-04 21:55 40.27408 -103.44161 22545 ft 370 kts 256°
2026-05-04 21:55 40.26759 -103.47410 22228 ft 369 kts 256°
2026-05-04 21:55 40.26108 -103.50663 21929 ft 370 kts 256°
2026-05-04 21:55 40.25459 -103.53895 21636 ft 364 kts 256°
2026-05-04 21:56 40.24822 -103.57058 21340 ft 354 kts 256°
2026-05-04 21:56 40.24208 -103.60142 21045 ft 346 kts 256°
2026-05-04 21:56 40.23612 -103.63153 20772 ft 337 kts 256°
2026-05-04 21:56 40.23033 -103.66083 20508 ft 328 kts 256°
2026-05-04 21:57 40.22466 -103.68945 20244 ft 322 kts 256°
2026-05-04 21:57 40.21905 -103.71774 19988 ft 320 kts 256°
2026-05-04 21:57 40.21356 -103.74536 19741 ft 317 kts 256°
2026-05-04 21:57 40.20810 -103.77322 19491 ft 316 kts 257°
2026-05-04 21:58 40.20272 -103.80093 19243 ft 312 kts 256°
2026-05-04 21:58 40.19716 -103.82830 18985 ft 311 kts 256°
2026-05-04 21:58 40.19165 -103.85546 18740 ft 308 kts 256°
2026-05-04 21:58 40.18619 -103.88253 18509 ft 306 kts 256°
2026-05-04 21:59 40.18048 -103.90924 18315 ft 304 kts 250°
2026-05-04 21:59 40.17044 -103.93357 18091 ft 302 kts 239°
2026-05-04 21:59 40.15919 -103.95665 17825 ft 299 kts 239°
2026-05-04 21:59 40.14809 -103.97952 17562 ft 297 kts 239°
2026-05-04 22:00 40.13712 -104.00227 17316 ft 295 kts 239°
2026-05-04 22:00 40.12626 -104.02505 17070 ft 294 kts 239°
2026-05-04 22:00 40.11547 -104.04773 16833 ft 292 kts 240°
2026-05-04 22:00 40.10480 -104.07024 16606 ft 291 kts 240°
2026-05-04 22:01 40.09418 -104.09268 16371 ft 291 kts 240°
2026-05-04 22:01 40.08354 -104.11512 16129 ft 290 kts 240°
2026-05-04 22:01 40.07305 -104.13727 15900 ft 290 kts 240°
2026-05-04 22:01 40.06241 -104.15969 15672 ft 290 kts 240°
2026-05-04 22:02 40.05175 -104.18204 15432 ft 290 kts 240°
2026-05-04 22:02 40.04108 -104.20446 15189 ft 290 kts 240°
2026-05-04 22:02 40.03041 -104.22688 14961 ft 291 kts 239°
2026-05-04 22:02 40.02014 -104.24849 14738 ft 293 kts 239°
2026-05-04 22:03 40.00938 -104.27110 14517 ft 293 kts 239°
2026-05-04 22:03 39.99858 -104.29371 14284 ft 294 kts 239°
2026-05-04 22:03 39.98773 -104.31641 14046 ft 295 kts 238°
2026-05-04 22:03 39.97694 -104.33904 13819 ft 293 kts 239°
2026-05-04 22:04 39.96619 -104.36152 13584 ft 290 kts 238°
2026-05-04 22:04 39.95558 -104.38370 13318 ft 285 kts 239°
2026-05-04 22:04 39.94536 -104.40501 13079 ft 277 kts 239°
2026-05-04 22:04 39.93531 -104.42600 12852 ft 269 kts 239°
2026-05-04 22:05 39.92553 -104.44649 12642 ft 261 kts 239°
2026-05-04 22:05 39.91607 -104.46628 12438 ft 254 kts 239°
2026-05-04 22:05 39.90629 -104.48530 12235 ft 252 kts 228°
2026-05-04 22:05 39.89159 -104.49727 12059 ft 252 kts 199°
2026-05-04 22:06 39.87430 -104.50048 11908 ft 252 kts 183°
2026-05-04 22:06 39.85689 -104.50049 11704 ft 248 kts 182°
2026-05-04 22:06 39.83995 -104.50053 11691 ft 238 kts 182°
2026-05-04 22:06 39.82326 -104.50066 11703 ft 243 kts 182°
2026-05-04 22:07 39.80617 -104.50056 11607 ft 245 kts 180°
2026-05-04 22:07 39.78910 -104.50001 11238 ft 247 kts 180°
2026-05-04 22:07 39.77188 -104.49929 10739 ft 248 kts 180°
2026-05-04 22:07 39.75460 -104.49868 10292 ft 248 kts 181°
2026-05-04 22:08 39.73734 -104.49801 9834 ft 248 kts 180°
2026-05-04 22:08 39.72009 -104.49731 9338 ft 248 kts 182°
2026-05-04 22:08 39.70288 -104.49660 8878 ft 246 kts 180°
2026-05-04 22:08 39.68579 -104.49605 8392 ft 246 kts 186°
2026-05-04 22:09 39.66972 -104.50173 7927 ft 237 kts 215°
2026-05-04 22:09 39.65884 -104.51691 7465 ft 231 kts 245°
2026-05-04 22:09 39.65543 -104.53695 7142 ft 226 kts 271°
2026-05-04 22:09 39.65916 -104.55705 7038 ft 236 kts 296°
2026-05-04 22:10 39.66890 -104.57359 6996 ft 230 kts 313°
2026-05-04 22:10 39.68004 -104.58835 6985 ft 225 kts 314°
2026-05-04 22:10 39.69078 -104.60226 6978 ft 209 kts 314°
2026-05-04 22:10 39.70192 -104.61327 6975 ft 195 kts 329°
2026-05-04 22:11 39.71329 -104.62183 6980 ft 186 kts 327°
2026-05-04 22:11 39.72406 -104.62988 6993 ft 167 kts 329°
2026-05-04 22:11 39.73347 -104.63683 6991 ft 146 kts 327°
2026-05-04 22:11 39.74252 -104.64348 6991 ft 157 kts 327°
2026-05-04 22:12 39.75184 -104.65055 6963 ft 153 kts 327°
2026-05-04 22:12 39.76108 -104.65756 6919 ft 151 kts 328°
2026-05-04 22:12 39.77118 -104.66136 6821 ft 158 kts 359°
2026-05-04 22:12 39.78210 -104.66073 6673 ft 157 kts 355°
2026-05-04 22:13 39.79304 -104.66077 6356 ft 157 kts 358°
2026-05-04 22:13 39.80342 -104.66051 6081 ft 142 kts 356°
2026-05-04 22:13 39.81286 -104.66051 5789 ft 129 kts 359°
2026-05-04 22:13 39.82140 -104.66062 5586 ft 121 kts 359°
2026-05-04 22:14 39.82985 -104.66053 5455 ft 122 kts
2026-05-04 22:14 39.83781 -104.66049 5428 ft 102 kts
2026-05-04 22:14 39.84295 -104.66042 5412 ft 57 kts
2026-05-04 22:14 39.84602 -104.66038 5398 ft 28 kts
2026-05-04 22:15 39.84725 -104.66062 5404 ft 26 kts 347°
2026-05-04 22:15 39.84889 -104.66145 5401 ft 18 kts 330°
2026-05-04 22:15 39.84950 -104.66187 5399 ft 10 kts 332°
2026-05-04 22:15 39.85012 -104.66223 5399 ft 10 kts 338°
2026-05-04 22:16 39.85088 -104.66241 5395 ft 15 kts 358°
2026-05-04 22:16 39.85190 -104.66240 5392 ft 14 kts
2026-05-04 22:16 39.85284 -104.66272 5394 ft 16 kts 306°
2026-05-04 22:16 39.85296 -104.66433 5390 ft 20 kts 271°
2026-05-04 22:17 39.85275 -104.66614 5385 ft 20 kts 263°
2026-05-04 22:17 39.85275 -104.66781 5382 ft 17 kts 270°